When you browse on this site, cookies collect data to enhance your experience and personalize the content and advertising you see.
Visit our Privacy Policy to learn more. By continuing to use the site, you agree to this use of cookies and data.
  • In Schweiz
  • Länderverzeichnis
  • Für 7 Tage
  • Wassertemperatur
  • Satellitenkarten
  • Wetterkarte
  • Widgets
  • user-avatar
    Anmelden

    Stündliche Wetter Newcastle

    Heute, 22 März, Freitag

    Zeit Temperatur Niederschläge Wind Luftdruck Luftfeuchtigkeit
    00:00 +20°C° 0 mm 2 m/S 761 mmHg 98%
    01:00 +20°C° 0 mm 2 m/S 761 mmHg 98%
    02:00 +20°C° 0 mm 2 m/S 761 mmHg 98%
    03:00 +20°C° 0 mm 2 m/S 761 mmHg 99%
    04:00 +20°C° 0 mm 2 m/S 761 mmHg 99%
    05:00 +20°C° 0 mm 2 m/S 761 mmHg 98%
    06:00 +20°C° 0 mm 2 m/S 762 mmHg 96%
    07:00 +21°C° 0 mm 2 m/S 762 mmHg 95%
    08:00 +24°C° 0.1 mm 2 m/S 762 mmHg 87%
    09:00 +25°C° 0.1 mm 2 m/S 762 mmHg 79%
    10:00 +27°C° 0 mm 2 m/S 762 mmHg 71%
    11:00 +28°C° 0.1 mm 2 m/S 761 mmHg 67%
    12:00 +29°C° 0.1 mm 3 m/S 761 mmHg 63%
    13:00 +30°C° 0.1 mm 3 m/S 761 mmHg 59%
    14:00 +29°C° 0 mm 3 m/S 760 mmHg 61%
    15:00 +28°C° 0 mm 3 m/S 760 mmHg 64%
    16:00 +27°C° 0 mm 3 m/S 760 mmHg 70%
    17:00 +25°C° 0 mm 2 m/S 760 mmHg 76%
    18:00 +24°C° 0 mm 2 m/S 761 mmHg 83%
    19:00 +22°C° 0 mm 1 m/S 761 mmHg 89%
    20:00 +22°C° 0 mm 1 m/S 761 mmHg 91%
    21:00 +22°C° 0 mm 1 m/S 761 mmHg 92%
    22:00 +21°C° 0 mm 1 m/S 761 mmHg 94%
    23:00 +21°C° 0 mm 1 m/S 761 mmHg 95%

    Morgen, 23 März, Samstag

    Zeit Temperatur Niederschläge Wind Luftdruck Luftfeuchtigkeit
    00:00 +21°C° 0 mm 1 m/S 761 mmHg 96%
    01:00 +21°C° 0 mm 1 m/S 761 mmHg 97%
    02:00 +20°C° 0 mm 1 m/S 760 mmHg 97%
    03:00 +20°C° 0 mm 1 m/S 760 mmHg 98%
    04:00 +20°C° 0 mm 1 m/S 760 mmHg 98%
    05:00 +20°C° 0 mm 1 m/S 760 mmHg 97%
    06:00 +21°C° 0 mm 1 m/S 760 mmHg 95%
    07:00 +21°C° 0 mm 1 m/S 760 mmHg 94%
    08:00 +24°C° 0 mm 1 m/S 760 mmHg 81%
    09:00 +27°C° 0 mm 1 m/S 760 mmHg 69%
    10:00 +30°C° 0 mm 2 m/S 759 mmHg 56%
    11:00 +32°C° 0 mm 2 m/S 759 mmHg 50%
    12:00 +34°C° 0 mm 2 m/S 758 mmHg 44%
    13:00 +36°C° 0 mm 2 m/S 757 mmHg 38%
    14:00 +35°C° 0 mm 3 m/S 757 mmHg 40%
    15:00 +35°C° 0 mm 4 m/S 756 mmHg 41%
    16:00 +35°C° 0 mm 5 m/S 756 mmHg 42%
    17:00 +32°C° 0.4 mm 5 m/S 757 mmHg 59%
    18:00 +28°C° 0.4 mm 5 m/S 757 mmHg 76%
    19:00 +25°C° 0.4 mm 5 m/S 758 mmHg 92%
    20:00 +25°C° 0.3 mm 4 m/S 758 mmHg 93%
    21:00 +25°C° 0.3 mm 4 m/S 758 mmHg 94%
    22:00 +23°C° 0.3 mm 4 m/S 758 mmHg 95%
    23:00 +23°C° 0 mm 4 m/S 758 mmHg 94%

    übermorgen, 24 März, Sonntag

    Zeit Temperatur Niederschläge Wind Luftdruck Luftfeuchtigkeit
    00:00 +23°C° 0 mm 4 m/S 758 mmHg 94%
    01:00 +23°C° 0 mm 5 m/S 757 mmHg 93%
    02:00 +23°C° 0 mm 4 m/S 757 mmHg 93%
    03:00 +22°C° 0 mm 4 m/S 757 mmHg 93%
    04:00 +22°C° 0 mm 3 m/S 757 mmHg 93%
    05:00 +22°C° 0 mm 3 m/S 757 mmHg 90%
    06:00 +22°C° 0 mm 3 m/S 757 mmHg 88%
    07:00 +21°C° 0 mm 2 m/S 758 mmHg 85%
    08:00 +26°C° 0 mm 2 m/S 758 mmHg 71%
    09:00 +29°C° 0 mm 3 m/S 757 mmHg 57%
    10:00 +33°C° 0 mm 3 m/S 757 mmHg 43%
    11:00 +35°C° 0 mm 3 m/S 757 mmHg 37%
    12:00 +37°C° 0 mm 2 m/S 757 mmHg 32%
    13:00 +39°C° 0 mm 2 m/S 757 mmHg 26%
    14:00 +36°C° 0 mm 3 m/S 757 mmHg 37%
    15:00 +33°C° 0 mm 3 m/S 756 mmHg 47%
    16:00 +29°C° 0 mm 4 m/S 756 mmHg 58%
    17:00 +28°C° 0 mm 3 m/S 757 mmHg 68%
    18:00 +26°C° 0 mm 2 m/S 757 mmHg 78%
    19:00 +24°C° 0 mm 1 m/S 757 mmHg 87%
    20:00 +24°C° 0 mm 1 m/S 758 mmHg 87%
    21:00 +24°C° 0 mm 1 m/S 758 mmHg 87%
    22:00 +24°C° 0 mm 1 m/S 758 mmHg 87%
    23:00 +25°C° 0 mm 2 m/S 758 mmHg 87%

    25 März, Montag

    Zeit Temperatur Niederschläge Wind Luftdruck Luftfeuchtigkeit
    00:00 +25°C° 0 mm 2 m/S 757 mmHg 87%
    01:00 +25°C° 0 mm 2 m/S 757 mmHg 86%
    02:00 +25°C° 0 mm 2 m/S 756 mmHg 85%
    03:00 +25°C° 0 mm 2 m/S 756 mmHg 83%
    04:00 +25°C° 0 mm 3 m/S 755 mmHg 82%
    05:00 +25°C° 0 mm 3 m/S 756 mmHg 79%
    06:00 +25°C° 0 mm 2 m/S 756 mmHg 76%
    07:00 +25°C° 0 mm 2 m/S 756 mmHg 72%
    08:00 +26°C° 0.4 mm 3 m/S 757 mmHg 71%
    09:00 +26°C° 0.4 mm 3 m/S 757 mmHg 70%
    10:00 +27°C° 0.4 mm 3 m/S 757 mmHg 69%
    11:00 +30°C° 0.1 mm 4 m/S 757 mmHg 58%
    12:00 +34°C° 0.1 mm 4 m/S 756 mmHg 47%
    13:00 +37°C° 0.1 mm 5 m/S 756 mmHg 36%
    14:00 +35°C° 0 mm 5 m/S 756 mmHg 43%
    15:00 +33°C° 0 mm 5 m/S 756 mmHg 49%
    16:00 +30°C° 0 mm 5 m/S 757 mmHg 55%
    17:00 +28°C° 0.1 mm 4 m/S 757 mmHg 63%
    18:00 +26°C° 0.1 mm 3 m/S 758 mmHg 71%
    19:00 +25°C° 0.1 mm 2 m/S 758 mmHg 79%
    20:00 +25°C° 0 mm 2 m/S 758 mmHg 79%
    21:00 +25°C° 0 mm 3 m/S 759 mmHg 78%
    22:00 +25°C° 0 mm 3 m/S 759 mmHg 78%
    23:00 +25°C° 0 mm 3 m/S 759 mmHg 77%

    26 März, Dienstag

    Zeit Temperatur Niederschläge Wind Luftdruck Luftfeuchtigkeit
    00:00 +25°C° 0 mm 3 m/S 759 mmHg 77%
    01:00 +25°C° 0 mm 3 m/S 759 mmHg 77%
    02:00 +23°C° 0.1 mm 4 m/S 759 mmHg 80%
    03:00 +22°C° 0.1 mm 4 m/S 759 mmHg 82%
    04:00 +22°C° 0.1 mm 5 m/S 759 mmHg 85%
    05:00 +20°C° 0.6 mm 5 m/S 760 mmHg 86%
    06:00 +19°C° 0.6 mm 5 m/S 761 mmHg 88%
    07:00 +16°C° 0.6 mm 5 m/S 761 mmHg 90%
    08:00 +16°C° 0.1 mm 5 m/S 762 mmHg 86%
    09:00 +17°C° 0.1 mm 4 m/S 762 mmHg 83%
    10:00 +17°C° 0.1 mm 4 m/S 763 mmHg 80%
    11:00 +19°C° 0 mm 4 m/S 763 mmHg 68%
    12:00 +21°C° 0 mm 3 m/S 762 mmHg 55%
    13:00 +24°C° 0 mm 3 m/S 762 mmHg 43%
    14:00 +24°C° 0 mm 3 m/S 762 mmHg 42%
    15:00 +24°C° 0 mm 3 m/S 762 mmHg 40%
    16:00 +22°C° 0 mm 3 m/S 762 mmHg 39%
    17:00 +21°C° 0 mm 3 m/S 763 mmHg 42%
    18:00 +20°C° 0 mm 4 m/S 764 mmHg 45%
    19:00 +18°C° 0 mm 4 m/S 765 mmHg 48%
    20:00 +19°C° 0 mm 4 m/S 766 mmHg 55%
    21:00 +19°C° 0 mm 4 m/S 767 mmHg 61%
    22:00 +19°C° 0 mm 4 m/S 767 mmHg 67%
    23:00 +19°C° 0 mm 4 m/S 767 mmHg 67%

    27 März, Mittwoch

    Zeit Temperatur Niederschläge Wind Luftdruck Luftfeuchtigkeit
    00:00 +19°C° 0 mm 4 m/S 767 mmHg 68%
    01:00 +19°C° 0 mm 4 m/S 767 mmHg 68%
    02:00 +18°C° 0 mm 4 m/S 767 mmHg 69%
    03:00 +18°C° 0 mm 4 m/S 767 mmHg 70%
    04:00 +18°C° 0 mm 4 m/S 767 mmHg 72%
    05:00 +19°C° 0 mm 4 m/S 768 mmHg 69%
    06:00 +19°C° 0 mm 4 m/S 768 mmHg 66%
    07:00 +20°C° 0 mm 4 m/S 768 mmHg 63%
    08:00 +21°C° 0 mm 4 m/S 768 mmHg 60%
    09:00 +22°C° 0 mm 4 m/S 769 mmHg 56%
    10:00 +25°C° 0 mm 4 m/S 769 mmHg 52%
    11:00 +23°C° 0.1 mm 4 m/S 768 mmHg 56%
    12:00 +23°C° 0.1 mm 4 m/S 768 mmHg 60%
    13:00 +24°C° 0.1 mm 3 m/S 767 mmHg 65%
    14:00 +24°C° 0.1 mm 3 m/S 767 mmHg 65%
    15:00 +23°C° 0.1 mm 4 m/S 767 mmHg 66%
    16:00 +23°C° 0.1 mm 4 m/S 767 mmHg 66%
    17:00 +22°C° 0 mm 3 m/S 767 mmHg 70%
    18:00 +21°C° 0 mm 3 m/S 767 mmHg 74%
    19:00 +19°C° 0 mm 2 m/S 768 mmHg 78%
    20:00 +19°C° 0 mm 2 m/S 768 mmHg 80%
    21:00 +19°C° 0 mm 2 m/S 768 mmHg 82%
    22:00 +19°C° 0 mm 1 m/S 768 mmHg 83%
    23:00 +19°C° 0 mm 1 m/S 767 mmHg 85%
    Mehr zeigen